"Pseudo-MPEC" for N00misj

Created 2023 Jun 5 2:22:05 UT using Find_Orb

Click here for an explanation of pseudo-MPECs

 
 Astrometry: 
     N00misj  C2023 05 26et7qjfIf/9Av#tlc%#y_5bp6B13jHFe9=/fu5Ze]kW!JZT0I=Z:9F52
     N00misj  C2023 05 26kMoqr==Astrometry]W5F]!AL[77s(HNS((cQyCEredacted;9hsF52
     N00misj  C2023 05 27.9kL1(]FNt!IF7`70C_8vg@9r@6r3XEAqjG\L^(TX*#XA=o+`.w6F51
     N00misj* S2023 05 28u=)H7?t$Q?#/!_[`h5rclickLlQG/Rp/),^6`8/Zpaypdbr#C2k2C51
     N00misj  s2023 05 28*q$[4\J*ESj)TjFjJ+$gIf9L0KrvUi!k.5'XsLfc/@Dyf4J\sNIBC51
     N00misj  S2023 05 29:bn$gfUwVVhhereEIPrO[^6Y^Gb9@jbb^%1=lwrC-Ne%M4VE=LZVC51
     N00misj  s2023 05 29c:ne;VX\ux^T/!aMDH!/N(x^M;0bKs?9qOqSOF,hoi!0=E3rT;URC51
     N00misj  S2023 05 29y(H/js]F9PBGKrH1`H')I7nJM#e(/dW(U+eUx;M@ylddRgk66]6_C51
     N00misj  s2023 05 29a=b'EqE0)M?4lt2a,XUyv?+c1ATH29/O!6OL\_UcXCVR/q.Oc;)FC51
     N00misj  S2023 05 29inBC.6K]k2xKs;)qK6CDBLb7RE8v9Zs/B04%!Pl?(qmDUdokj8igC51
     N00misj  s2023 05 29e+$qPpmC*gRLwA,xqRrI?D$)9IM,mnKRMB)CjNW3T.T``K8X%w#tC51
     N00misj  S2023 05 29Z=Db#kVNC)J':-/K@cYNJty,YX*\SSQZVB7^?tcFU#-d)MN!R6THC51
     N00misj  s2023 05 29Cg''J4y#eZ4aKLy5Um3sv:!8;S)JVL7]S;K,s6f-wkYWkforo^bKC51
     N00misj  S2023 05 29s8fuP[(Y_^_QullFye\?r31explanation,EU]=.u/NJ_0Ssok2FC51
     N00misj  s2023 05 29g%m3XXJw+7b7\dls@c\pr0@1tM^D?qD,P7s.Jw_U5HFKflEa/'W'C51
     N00misj KC2023 06 01.44782 22 01 12.52 +29 21 38.5    ~61Bb       oNEOCP291
     N00misj KC2023 06 01.45387 22 01 15.25 +29 21 54.1    ~61Bb       oNEOCP291

Station data:
(291) LPL/Spacewatch II  (N31.961669 W111.599905)  US/Arizona.  Observers J.
   V. Scotti, R. S. McMillan. 1.8-m f/2.7 reflector + CCD.
(C51) WISE. Measurers A. Mainzer, E. Wright, J. Bauer, T. Grav, J. Dailey, J.
   Masiero, R. Cutri, R. McMillan, R. Walker.
(F51) Pan-STARRS 1, Haleakala  (N20.707234 W156.255910)  US/Hawaii.
   Observers J. Bulger, T. Lowe, A. Schultz, M. Willman. Measurers K.
   Chambers, S. Chastel, T. de Boer, L. Denneau, J. Fairlamb, H. Flewelling,
   M. Huber, C.-C. Lin, E. Magnier, Y. Ramanjooloo, R. Wainscoat, R. Weryk.
   1.8-m Ritchey-Chrétien + CCD.
(F52) Pan-STARRS 2, Haleakala  (N20.707382 W156.255910)  US/Hawaii.
   Observers J. Bulger, T. Dukes, T. Lowe, A. Schultz, M. Willman. Measurers
   K. Chambers, S. Chastel, T. de Boer, L. Denneau, J. Fairlamb, H.
   Flewelling, M. Huber, C.-C. Lin, E. Magnier, Y. Ramanjooloo, R. Wainscoat,
   R. Weryk. 1.8-m Ritchey-Chrétien + CCD.

Orbital elements:  N00misj
   Perihelion 2023 Jul 10.91619 +/- 0.709 TT = 21:59:19 (JD 2460136.41619)
Epoch 2023 Jun  1.0 TT = JDT 2460096.5   Earth MOID: 0.0604      AutoNEOCP
M 349.89039554 +/- 1.3              (J2000 ecliptic)
n   0.25327076 +/- 0.0285           Peri.  123.83582 +/- 0.9
a   2.47407395 +/- 0.186            Node   195.96206 +/- 0.6
e   0.6284626 +/- 0.0267            Incl.   14.60154 +/- 0.33
P   3.89                   H 21.95  G  0.15   U 10.4
q 0.91921086 +/- 0.003    Q 4.02893704 +/- 0.369
From 11 observations 2023 May 26-June 1; mean residual 0".67
Residuals in arcseconds: 
230526 F52  .46-  .02-    230529 C51  .17-  .71-    230529 C51  .43+  .42-    
230526 F52  .24+  .20+    230529 C51  .50-  2.6-    230601 291  .50-  .50+    
230527 F51  .22+  .05-    230529 C51  .32-  .68-    230601 291  .29+  .20+    
230528 C51  .06+  .45-    230529 C51  .35+  .18+    

Ephemerides (geocentric):
Date (UTC) HH   RA             Dec           delta  r     elong  mag " sig PA
---- --------  ------------   ------------  ------ ------ -----  --- --------
2023 06 05 02  22 28 46.704   +31 46 55.47  .41847 1.0465  82.6 22.8 2.18  77
2023 06 05 03  22 29 05.895   +31 48 26.36  .41852 1.0462  82.6 22.8 2.23  77
2023 06 05 04  22 29 25.090   +31 49 57.04  .41858 1.0460  82.5 22.8 2.28  77
2023 06 05 05  22 29 44.288   +31 51 27.51  .41864 1.0457  82.5 22.8 2.33  77
2023 06 05 06  22 30 03.491   +31 52 57.77  .41870 1.0454  82.5 22.8 2.38  77
2023 06 05 07  22 30 22.697   +31 54 27.82  .41875 1.0452  82.4 22.8 2.43  76
2023 06 05 08  22 30 41.907   +31 55 57.65  .41881 1.0449  82.4 22.8 2.49  76
2023 06 05 09  22 31 01.120   +31 57 27.27  .41887 1.0446  82.3 22.8 2.54  76
2023 06 05 10  22 31 20.337   +31 58 56.68  .41893 1.0444  82.3 22.8 2.60  76
2023 06 05 11  22 31 39.557   +32 00 25.87  .41899 1.0441  82.2 22.8 2.65  76
2023 06 05 12  22 31 58.781   +32 01 54.86  .41905 1.0438  82.2 22.8 2.71  76
2023 06 05 13  22 32 18.009   +32 03 23.62  .41911 1.0436  82.2 22.8 2.76  76
2023 06 05 14  22 32 37.239   +32 04 52.18  .41917 1.0433  82.1 22.8 2.82  76
2023 06 05 15  22 32 56.474   +32 06 20.52  .41924 1.0430  82.1 22.8 2.88  76
2023 06 05 16  22 33 15.711   +32 07 48.65  .41930 1.0428  82.0 22.8 2.94  76
2023 06 05 17  22 33 34.952   +32 09 16.56  .41936 1.0425  82.0 22.8 3.00  76
2023 06 05 18  22 33 54.196   +32 10 44.25  .41942 1.0422  82.0 22.8 3.06  76
2023 06 05 19  22 34 13.443   +32 12 11.74  .41949 1.0420  81.9 22.8 3.12  76
2023 06 05 20  22 34 32.693   +32 13 39.01  .41955 1.0417  81.9 22.8 3.18  76
2023 06 05 21  22 34 51.946   +32 15 06.06  .41962 1.0414  81.8 22.8 3.24  76
2023 06 05 22  22 35 11.202   +32 16 32.90  .41968 1.0412  81.8 22.8 3.31  76
2023 06 05 23  22 35 30.462   +32 17 59.52  .41975 1.0409  81.8 22.8 3.37  76
2023 06 06 00  22 35 49.724   +32 19 25.93  .41981 1.0406  81.7 22.8 3.44  76
2023 06 06 01  22 36 08.989   +32 20 52.12  .41988 1.0404  81.7 22.8 3.50  76
2023 06 06 02  22 36 28.257   +32 22 18.09  .41995 1.0401  81.6 22.8 3.57  76
2023 06 06 03  22 36 47.528   +32 23 43.85  .42002 1.0398  81.6 22.8 3.64  76
2023 06 06 04  22 37 06.801   +32 25 09.40  .42008 1.0396  81.6 22.8 3.70  76
2023 06 06 05  22 37 26.078   +32 26 34.72  .42015 1.0393  81.5 22.8 3.77  76
2023 06 06 06  22 37 45.356   +32 27 59.83  .42022 1.0391  81.5 22.8 3.84  76
2023 06 06 07  22 38 04.638   +32 29 24.73  .42029 1.0388  81.4 22.8 3.91  76
2023 06 06 08  22 38 23.922   +32 30 49.41  .42036 1.0385  81.4 22.8 3.98  76
2023 06 06 09  22 38 43.209   +32 32 13.87  .42043 1.0383  81.4 22.8 4.05  76
2023 06 06 10  22 39 02.498   +32 33 38.11  .42050 1.0380  81.3 22.8 4.13  76
2023 06 06 11  22 39 21.790   +32 35 02.13  .42057 1.0377  81.3 22.8 4.20  76
2023 06 06 12  22 39 41.084   +32 36 25.94  .42064 1.0375  81.2 22.8 4.27  75
2023 06 06 13  22 40 00.380   +32 37 49.53  .42072 1.0372  81.2 22.8 4.35  75
2023 06 06 14  22 40 19.679   +32 39 12.91  .42079 1.0370  81.2 22.8 4.42  75
2023 06 06 15  22 40 38.980   +32 40 36.06  .42086 1.0367  81.1 22.8 4.50  75
2023 06 06 16  22 40 58.283   +32 41 59.00  .42093 1.0364  81.1 22.8 4.58  75
2023 06 06 17  22 41 17.588   +32 43 21.72  .42101 1.0362  81.0 22.8 4.66  75
2023 06 06 18  22 41 36.896   +32 44 44.22  .42108 1.0359  81.0 22.8 4.73  75
2023 06 06 19  22 41 56.205   +32 46 06.50  .42116 1.0357  81.0 22.8 4.81  75
2023 06 06 20  22 42 15.517   +32 47 28.57  .42123 1.0354  80.9 22.8 4.89  75
2023 06 06 21  22 42 34.830   +32 48 50.41  .42131 1.0351  80.9 22.8 4.98  75
2023 06 06 22  22 42 54.146   +32 50 12.04  .42139 1.0349  80.8 22.8 5.06  75
2023 06 06 23  22 43 13.463   +32 51 33.45  .42146 1.0346  80.8 22.8 5.14  75
2023 06 07 00  22 43 32.782   +32 52 54.63  .42154 1.0344  80.8 22.8 5.22  75
2023 06 07 01  22 43 52.103   +32 54 15.60  .42162 1.0341  80.7 22.8 5.31  75